Hourly Weather Rudnik

Today, 19 April, Monday

Time Temperature Precipitation Wind Pressure Humidity
00:00 +8°C° 0 mm 1 mps 758 mmHg 81%
01:00 +8°C° 0 mm 1 mps 758 mmHg 84%
02:00 +8°C° 0 mm 1 mps 758 mmHg 85%
03:00 +7°C° 0 mm 2 mps 757 mmHg 86%
04:00 +7°C° 0 mm 2 mps 757 mmHg 87%
05:00 +8°C° 0 mm 2 mps 757 mmHg 85%
06:00 +8°C° 0 mm 3 mps 757 mmHg 84%
07:00 +9°C° 0 mm 3 mps 757 mmHg 82%
08:00 +11°C° 0 mm 3 mps 756 mmHg 76%
09:00 +13°C° 0 mm 3 mps 756 mmHg 69%
10:00 +14°C° 0 mm 3 mps 756 mmHg 62%
11:00 +16°C° 0.4 mm 3 mps 756 mmHg 59%
12:00 +17°C° 0.4 mm 4 mps 755 mmHg 57%
13:00 +18°C° 0.4 mm 4 mps 755 mmHg 54%
14:00 +18°C° 0.3 mm 4 mps 755 mmHg 54%
15:00 +18°C° 0.3 mm 4 mps 755 mmHg 53%
16:00 +18°C° 0.3 mm 3 mps 755 mmHg 52%
17:00 +16°C° 0.3 mm 3 mps 755 mmHg 59%
18:00 +13°C° 0.3 mm 3 mps 755 mmHg 67%
19:00 +12°C° 0.3 mm 3 mps 755 mmHg 74%
20:00 +12°C° 0.2 mm 2 mps 755 mmHg 77%
21:00 +12°C° 0.2 mm 2 mps 755 mmHg 80%
22:00 +10°C° 0.2 mm 2 mps 755 mmHg 83%
23:00 +10°C° 0 mm 2 mps 755 mmHg 81%

Tomorrow, 20 April, Tuesday

Time Temperature Precipitation Wind Pressure Humidity
00:00 +10°C° 0 mm 2 mps 755 mmHg 80%
01:00 +10°C° 0 mm 2 mps 755 mmHg 78%
02:00 +10°C° 0 mm 2 mps 755 mmHg 78%
03:00 +9°C° 0 mm 2 mps 754 mmHg 79%
04:00 +9°C° 0 mm 2 mps 754 mmHg 79%
05:00 +9°C° 0 mm 2 mps 755 mmHg 78%
06:00 +10°C° 0 mm 2 mps 755 mmHg 77%
07:00 +10°C° 0 mm 2 mps 755 mmHg 76%
08:00 +12°C° 0 mm 2 mps 755 mmHg 72%
09:00 +13°C° 0 mm 2 mps 755 mmHg 68%
10:00 +13°C° 0 mm 2 mps 755 mmHg 64%
11:00 +14°C° 0.1 mm 2 mps 754 mmHg 60%
12:00 +15°C° 0.1 mm 1 mps 754 mmHg 55%
13:00 +16°C° 0.1 mm 1 mps 754 mmHg 50%
14:00 +16°C° 0.1 mm 1 mps 753 mmHg 50%
15:00 +16°C° 0.1 mm 1 mps 753 mmHg 50%
16:00 +16°C° 0.1 mm 1 mps 752 mmHg 50%
17:00 +15°C° 0.1 mm 1 mps 752 mmHg 56%
18:00 +13°C° 0.1 mm 1 mps 752 mmHg 62%
19:00 +12°C° 0.1 mm 1 mps 752 mmHg 69%
20:00 +11°C° 0 mm 1 mps 752 mmHg 71%
21:00 +11°C° 0 mm 1 mps 752 mmHg 74%
22:00 +10°C° 0 mm 1 mps 752 mmHg 76%
23:00 +10°C° 0.1 mm 1 mps 752 mmHg 79%

Day after tomorrow, 21 April, Wednesday

Time Temperature Precipitation Wind Pressure Humidity
00:00 +9°C° 0.1 mm 1 mps 752 mmHg 82%
01:00 +8°C° 0.1 mm 2 mps 752 mmHg 85%
02:00 +7°C° 0.1 mm 2 mps 751 mmHg 87%
03:00 +7°C° 0.1 mm 2 mps 751 mmHg 89%
04:00 +6°C° 0.1 mm 2 mps 751 mmHg 92%
05:00 +7°C° 0 mm 3 mps 751 mmHg 89%
06:00 +8°C° 0 mm 3 mps 751 mmHg 87%
07:00 +8°C° 0 mm 3 mps 751 mmHg 84%
08:00 +10°C° 0.1 mm 4 mps 751 mmHg 77%
09:00 +11°C° 0.1 mm 4 mps 751 mmHg 71%
10:00 +12°C° 0.1 mm 5 mps 751 mmHg 64%
11:00 +13°C° 0 mm 5 mps 751 mmHg 57%
12:00 +14°C° 0 mm 5 mps 750 mmHg 50%
13:00 +15°C° 0 mm 5 mps 750 mmHg 43%
14:00 +14°C° 0 mm 5 mps 750 mmHg 48%
15:00 +13°C° 0 mm 5 mps 750 mmHg 52%
16:00 +13°C° 0 mm 4 mps 750 mmHg 56%
17:00 +10°C° 0 mm 5 mps 750 mmHg 63%
18:00 +9°C° 0 mm 5 mps 750 mmHg 70%
19:00 +8°C° 0 mm 6 mps 750 mmHg 77%
20:00 +6°C° 0 mm 5 mps 751 mmHg 79%
21:00 +5°C° 0 mm 4 mps 751 mmHg 81%
22:00 +5°C° 0 mm 2 mps 751 mmHg 83%
23:00 +4°C° 0 mm 3 mps 751 mmHg 82%

22 April, Thursday

Time Temperature Precipitation Wind Pressure Humidity
00:00 +3°C° 0 mm 4 mps 751 mmHg 81%
01:00 +3°C° 0 mm 4 mps 751 mmHg 81%
02:00 +1°C° 0 mm 5 mps 751 mmHg 78%
03:00 +1°C° 0 mm 5 mps 751 mmHg 76%
04:00 0°C° 0 mm 5 mps 751 mmHg 74%
05:00 +1°C° 0 mm 6 mps 751 mmHg 72%
06:00 0°C° 0 mm 7 mps 751 mmHg 70%
07:00 +2°C° 0 mm 7 mps 751 mmHg 69%
08:00 +2°C° 0 mm 7 mps 751 mmHg 66%
09:00 +2°C° 0 mm 8 mps 751 mmHg 63%
10:00 +2°C° 0 mm 8 mps 751 mmHg 60%
11:00 +4°C° 0.1 mm 8 mps 751 mmHg 58%
12:00 +5°C° 0.1 mm 8 mps 751 mmHg 55%
13:00 +6°C° 0.1 mm 8 mps 751 mmHg 53%
14:00 +6°C° 0.2 mm 8 mps 751 mmHg 59%
15:00 +5°C° 0.2 mm 8 mps 751 mmHg 64%
16:00 +5°C° 0.2 mm 7 mps 751 mmHg 70%
17:00 +4°C° 0.4 mm 7 mps 751 mmHg 78%
18:00 +3°C° 0.4 mm 7 mps 751 mmHg 85%
19:00 +2°C° 0.4 mm 6 mps 751 mmHg 93%
20:00 +2°C° 0.6 mm 6 mps 751 mmHg 93%
21:00 +2°C° 0.6 mm 5 mps 751 mmHg 92%
22:00 +1°C° 0.6 mm 5 mps 751 mmHg 92%
23:00 +1°C° 0 mm 6 mps 752 mmHg 90%

23 April, Friday

Time Temperature Precipitation Wind Pressure Humidity
00:00 +2°C° 0 mm 6 mps 752 mmHg 88%
01:00 +2°C° 0 mm 7 mps 752 mmHg 85%
02:00 +2°C° 0 mm 6 mps 753 mmHg 86%
03:00 +2°C° 0 mm 6 mps 753 mmHg 86%
04:00 +2°C° 0 mm 5 mps 753 mmHg 86%
05:00 +2°C° 0 mm 6 mps 754 mmHg 87%
06:00 +2°C° 0 mm 6 mps 754 mmHg 89%
07:00 +2°C° 0 mm 6 mps 755 mmHg 90%
08:00 +3°C° 0.2 mm 6 mps 755 mmHg 87%
09:00 +3°C° 0.2 mm 6 mps 755 mmHg 84%
10:00 +4°C° 0.2 mm 6 mps 756 mmHg 80%
11:00 +5°C° 0.2 mm 6 mps 756 mmHg 69%
12:00 +6°C° 0.2 mm 7 mps 756 mmHg 57%
13:00 +9°C° 0.2 mm 7 mps 756 mmHg 45%
14:00 +9°C° 0 mm 6 mps 756 mmHg 44%
15:00 +9°C° 0 mm 6 mps 756 mmHg 43%
16:00 +9°C° 0 mm 5 mps 756 mmHg 42%
17:00 +8°C° 0.1 mm 4 mps 756 mmHg 52%
18:00 +7°C° 0.1 mm 3 mps 756 mmHg 61%
19:00 +6°C° 0.1 mm 2 mps 756 mmHg 70%
20:00 +5°C° 0.5 mm 2 mps 756 mmHg 78%
21:00 +5°C° 0.5 mm 2 mps 756 mmHg 85%
22:00 +5°C° 0.5 mm 1 mps 756 mmHg 93%
23:00 +4°C° 0.1 mm 2 mps 755 mmHg 91%

24 April, Saturday

Time Temperature Precipitation Wind Pressure Humidity
00:00 +3°C° 0.1 mm 4 mps 755 mmHg 90%
01:00 +2°C° 0.1 mm 5 mps 755 mmHg 89%
02:00 +3°C° 0.1 mm 4 mps 755 mmHg 90%
03:00 +1°C° 0.1 mm 4 mps 755 mmHg 92%
04:00 +1°C° 0.1 mm 4 mps 755 mmHg 93%
05:00 +1°C° 0 mm 4 mps 756 mmHg 91%
06:00 +2°C° 0 mm 3 mps 756 mmHg 88%
07:00 +2°C° 0 mm 3 mps 756 mmHg 86%
08:00 +3°C° 0.2 mm 4 mps 757 mmHg 75%
09:00 +5°C° 0.2 mm 5 mps 757 mmHg 63%
10:00 +6°C° 0.2 mm 5 mps 757 mmHg 52%
11:00 +7°C° 0.1 mm 6 mps 757 mmHg 48%
12:00 +6°C° 0.1 mm 7 mps 757 mmHg 43%
13:00 +8°C° 0.1 mm 7 mps 757 mmHg 38%
14:00 +7°C° 0 mm 8 mps 757 mmHg 40%
15:00 +6°C° 0 mm 8 mps 758 mmHg 41%
16:00 +6°C° 0 mm 8 mps 758 mmHg 42%
17:00 +5°C° 0 mm 8 mps 758 mmHg 46%
18:00 +4°C° 0 mm 7 mps 758 mmHg 50%
19:00 +2°C° 0 mm 6 mps 759 mmHg 54%
20:00 +2°C° 0 mm 6 mps 759 mmHg 58%
21:00 +1°C° 0 mm 5 mps 759 mmHg 62%
22:00 +1°C° 0 mm 5 mps 759 mmHg 66%
23:00 0°C° 0 mm 5 mps 759 mmHg 67%
Show more